Location: Gniazdowice
(50.2124°N, 20.2673°E)
Time: 21:42:42
(UTC+00:00)

Meteor 1-28 Rocket - Pass Details

Date: 07 August 2024
Orbit: 468 x 483 km, 97.5° (Epoch: 08 September)

Event Time Altitude Azimuth Distance (km) Brightness Sun altitude
Exits shadow 02:27:59 10° 234° (SW) 1,704 5.1 -7.4°
Reaches altitude 10° 02:28:05 10° 235° (SW) 1,682 5.1 -7.4°
Maximum altitude 02:30:08 15° 270° (W) 1,425 5.0 -7.2°
Drops below altitude 10° 02:32:08 10° 304° (NW) 1,670 5.6 -6.9°
Sets 02:35:05 0° 330° (NNW) 2,572 6.8 -6.5°
